Flag for Somalia Weather past 2 weeks in Hargeisa, Somalia

Now
79 °F

Passing clouds.


Feels Like: 81 °F
Forecast: 68 / 86 °F
Wind: 2 mph from North

Location: Aden


UV Index: 10 (Very high)

Visibility: N/A


Pressure: 29.86 "Hg

Humidity: 74%

Dew point: 70 °F

Location of HargeisaLocation

Historic Weather in Hargeisa

°F

Hargeisa temperature yesterday

Maximum temperature yesterday: 93 °F (at 12:00 PM)
Minimum temperature yesterday: 81 °F (at 1:00 AM)
Average temperature yesterday: 85 °F

Past Weeks' High & Low Weather Summary

 TemperatureHumidityPressure
High93 °F (Apr 18, 12:00 PM)89% (Apr 14, 1:00 AM)30.04 "Hg (Apr 14, 1:00 AM)
Low75 °F (Apr 16, 6:00 AM)39% (Apr 18, 1:00 PM)29.74 "Hg (Apr 17, 4:00 PM)
Average83 °F70%29.88 "Hg
* Reported Apr 4 10:00 PM — Apr 19 10:00 PM, Hargeisa, Weather by CustomWeather, © 2014

Note: Actual official high and low records may vary slightly from our data, if they occured in-between our weather recording intervals... More about our weather records

Advertising

Historic Weather Conditions — Data for Previous 24 hours

 ConditionsComfort  
Time TempWeatherWind HumidityBarometerVisibility
10:00 PM
Apr 19
81 °FPassing clouds.5 mph74%29.86 "HgN/A
9:00 PM81 °FClear.3 mph79%29.86 "Hg10 mi
8:00 PM82 °FClear.3 mph74%29.86 "Hg10 mi
7:00 PM82 °FClear.6 mph74%29.83 "Hg10 mi
6:00 PM86 °FSunny.7 mph66%29.83 "Hg10 mi
5:00 PM86 °FSunny.10 mph62%29.83 "Hg10 mi
4:00 PM88 °FSunny.12 mph55%29.83 "Hg10 mi
3:00 PM88 °FSunny.13 mph59%29.83 "Hg10 mi
2:00 PM88 °FSunny.10 mph59%29.86 "Hg10 mi
1:00 PM90 °FSunny.12 mph55%29.89 "Hg10 mi
12:00 PM90 °FSunny.14 mph52%29.92 "Hg10 mi
11:00 AM88 °FSunny.13 mph59%29.92 "Hg10 mi
10:00 AM88 °FSunny.10 mph59%29.95 "Hg10 mi
9:00 AM86 °FSunny.6 mph59%29.92 "Hg10 mi
8:00 AM81 °FSunny.2 mph84%29.92 "Hg10 mi
7:00 AM79 °FSunny.2 mph84%29.89 "Hg10 mi
6:00 AM79 °FSunny.5 mph84%29.89 "Hg10 mi
5:00 AM81 °FPassing clouds.8 mph84%29.86 "HgN/A
4:00 AM81 °FPassing clouds.13 mph84%29.83 "HgN/A
3:00 AM82 °FPassing clouds.15 mph79%29.83 "HgN/A
2:00 AM82 °FClear.14 mph74%29.83 "Hg10 mi
1:00 AM82 °FClear.12 mph70%29.83 "Hg10 mi
12:00 AM82 °FClear.8 mph74%29.86 "Hg10 mi
11:00 PM
Apr 18
82 °FClear.2 mph70%29.86 "Hg10 mi
Weather by CustomWeather, © 2014

See weather overview